User: anonymous   Login
Location: Bergen
(60.3910°N, 5.3250°E)
Time: 00:44:35
(UTC+02:00)
Language:

Cosmos 1943 - Orbit

View from above orbital plane
View from above orbital plane
View from above satellite
View from above satellite

Ground track
Ground track

The orbit data is extracted from the following two-line orbital elements,

1 19119U 88039A   15242.53599127 -.00000193  00000-0 -74895-4 0  9996
2 19119 071.0038 040.6868 0012836 327.0571 097.0454 14.15033121409204
Epoch (UTC): 30 August 2015 12:51:49
Eccentricity: 0.0012836
inclination: 71.0038°
perigee height: 833 km
apogee height: 851 km
right ascension of ascending node: 40.6868°
argument of perigee: 327.0571°
revolutions per day: 14.15033121
mean anomaly at epoch: 97.0454°
orbit number at epoch: 40920

The dashed part of the orbit path shows where the satellite is in the earth's shadow,  

DLR